CZ-3B DEB, 42464

Orbit data source: Space-Track

CZ-3B DEB, 42464 is space debris in HEO originally from a launch on Sat, 04 Sep 2010 UTC launched from the Xichang Space Center, China (XSC). Debris objects in space refer to the collection of defunct objects orbiting the Earth. Examples of debris include non-operational satellites, rocket bodies, and fragments generated from explosions, collisions, or faulty payload assembly.

Loading next visibility...
CZ-3B DEB details
Identifier
42464, 2010-042AF
Orbit
HEO
Last TLE update3 days ago
Origin
Flag of CNCASC (CN / PRC)
ManufacturerCALT
MissionSpacecraft
Bus & MotorUnknown
MassUnknown
Launch date (UTC)
2010-09-04 (14 years ago)
Launch vehicleUnknown
Launch site
Xichang Space Center, China (XSC)
Object type
Payload
Rocket body
Debris
Shape & HBRUnknown
Radar Cross SectionMedium (>0.1 m² and <1 m²)

Expand to show TLE details & history

TLE from 3 days ago
0 CZ-3B DEB
1 42464U 10042AF  25021.24634139 -.00000065  00000-0  00000+0 0  9990
2 42464  25.2285  34.6121 7371622 193.4544 122.9809  1.82420642 73135
Epoch: 2025-01-21T05:54Z
Definitive object data (Epoch: 2025-01-21T05:54:43.896Z)
Latitude-0.00005°
Longitude-174.91885°
Altitude39,237.168 km
Speed1.841 km/s
True Right ascension02h 18m 28s
True Declination0° 00' 00"
Sunlit
Object was in daylight at TLE epoch
Visualization TLE readout
Latitude2.51779°
Longitude-170.34319°
Altitude41,138.366 km
Speed1.64 km/s
Apparent Right ascension02h 37m 46s
Apparent Declination-2° 10' 17"
Sunlit
Object is in daylight
Visualization observer readout
Local Sidereal Time14:47:21
Azimuth3.91° NNE
Elevation-52.192°
Doppler factor1
Orbital elements
Apogee altitude42,778.576 km
Perigee altitude1,059.42 km
Semi-major axis28,297.135 km
Eccentricity0.7371622
Inclination25.2285°
RAAN34.6121°
Arg. of periapsis193.4544°
True anomaly166.59193°
Mean anomaly122.9809°
Eccentric anomaly146.37156°
Mean motion0.45596 °/min
BSTARUnknown
Orbital period789.54 mins
Loading maneuver chart data...
Loading historical data...
Loading historical data...
Loading historical data...
Loading historical data...
Loading historical data...
Loading historical data...
Loading historical data...

CZ-3B DEB Visibility forecast

Observer location: undefined°, undefined

Span
Click to sort rows by Start time (UTC) header in descending order
Start Az.
Max El. time (UTC)
Max El. Az.
Max El.
End time (UTC)
End Az.
724 mins2025-01-24 22:26:19.989Z190.626° SSW2025-01-25 02:22:19.989Z207.359° SW34.214°2025-01-25 10:30:19.989Z156.695° SSE
|